Temp_Advection
nan nan nan nan nan nan nan nan nan nan nan nan nan nan nan nan nan nan nan nan nan nan nan nan nan nan nan nan nan nan nan nan nan nan nan nan nan nan nan nan nan nan nan nan nan nan nan nan nan nan nan nan
nan 0 0 0 0 0 0 0 -0 -0 0 0 0 0 0 0 0 1 0 0 0 0 0 0 0 0 0 0 0 0 0 0 -0 0 -0 -0 -0 -0 -0 0 0 0 0 0 0 -0 0 -0 -0 0 -0 nan
nan 0 0 0 0 0 0 0 -0 -0 0 0 0 0 0 0 0 0 0 0 0 0 0 0 0 0 0 0 0 0 0 0 -0 0 0 0 0 -0 -0 -0 -0 0 0 0 0 0 0 -0 -0 -0 -0 nan
nan 0 0 0 0 0 0 0 0 -0 -0 0 0 0 0 0 0 0 0 1 0 0 0 0 0 0 0 0 0 0 0 0 0 0 0 0 0 0 -0 -0 -0 -0 0 0 0 0 0 0 -0 -0 -0 nan
nan -0 0 0 0 0 0 0 0 0 0 0 0 0 0 0 0 0 0 0 0 0 0 0 0 1 1 1 0 0 0 0 0 0 0 0 0 0 0 -0 0 -0 0 0 0 0 0 0 -0 -0 0 nan
nan 0 0 0 0 0 0 1 1 1 1 1 0 0 0 0 0 0 0 0 0 -0 -0 -0 0 0 1 1 1 1 0 0 0 0 0 0 0 0 0 0 0 0 0 0 0 0 0 -0 -0 0 1 nan
nan 0 0 0 -0 -0 -0 -0 0 0 0 1 1 0 0 1 0 0 0 0 0 -0 -0 -0 -0 -0 -0 0 1 1 0 0 0 0 0 0 0 0 0 0 0 0 -0 -0 0 0 -0 -0 -0 0 0 nan
nan -0 -0 -0 -0 -1 -1 -1 -1 -1 -1 -0 -0 0 0 0 1 0 0 0 0 0 -0 -0 -0 -0 -0 -0 0 0 0 0 0 0 0 0 0 0 0 0 -0 -0 -0 -0 -0 -0 -1 -1 -1 -0 -1 nan
nan -0 -0 -0 -0 -1 -1 -1 -1 -1 -1 -1 -1 -1 -0 0 0 0 0 0 0 0 -0 -0 -0 -0 -0 -1 -1 -0 -1 -1 -1 -1 -1 -1 -0 -0 -0 -0 -1 -1 -1 -1 -1 -0 -1 -1 -1 -1 -1 nan
nan 0 -0 0 0 -0 -0 -0 -0 -1 -1 -1 -1 -1 -1 -1 -0 0 0 0 -0 -0 -0 -1 -1 -1 -1 -1 -1 -1 -1 -2 -2 -1 -1 -1 -1 -1 -1 -1 -1 -1 -1 -1 -1 -0 -0 -0 -1 -1 -1 nan
nan 0 0 0 0 0 -0 -0 -0 -0 -1 -1 -1 -1 -1 -1 -1 -1 -0 -0 -1 -1 -1 -1 -1 -1 -1 -1 -1 -1 -1 -1 -1 -1 -1 -1 -1 -1 -1 -1 -1 -1 -0 -0 -1 -1 -1 -0 -0 -0 -0 nan
nan -0 0 0 -0 -0 -0 -0 -0 -0 -0 -1 -1 -1 -1 -1 -1 -1 -1 -1 -1 -1 -1 -1 -1 -1 -1 -0 -0 -0 -0 -0 -0 -1 -1 -1 -1 -1 -0 -0 -1 -0 -0 -0 -0 -1 -1 -1 -1 -1 -0 nan
nan -1 -1 -0 -0 -0 -0 -0 -0 -0 -1 -1 -1 -1 -1 -2 -2 -2 -2 -1 -1 -1 -1 -1 -0 -0 -0 -0 0 0 -0 -0 -0 -0 -0 -1 -1 -1 -0 -0 -0 -0 -0 -0 -0 -1 -1 -1 -1 -1 -1 nan
nan 0 -0 -0 -0 -0 -0 -0 -1 -1 -1 -1 -1 -1 -1 -1 -2 -2 -2 -2 -2 -2 -2 -1 -1 -1 -0 -0 -0 -0 -0 -1 -0 -0 -0 -1 -1 -1 -1 -1 -0 -0 -0 -0 -0 -0 -0 -1 -1 -1 -1 nan
nan 1 0 0 0 0 -0 -0 -1 -1 -1 -1 -1 -1 -1 -1 -1 -1 -1 -2 -2 -2 -2 -2 -1 -1 -1 -1 -0 -0 -1 -1 -1 -1 -1 -1 -1 -1 -1 -1 -1 -1 -1 -1 -1 -0 -0 -0 -0 -0 -1 nan
nan 0 0 0 0 0 -0 -0 -0 -0 -0 -1 -0 -0 -0 -0 -0 -0 -0 -0 -0 -1 -1 -1 -1 -1 -1 -1 -1 -1 -1 -1 -1 -1 -1 -1 -1 -1 -1 -1 -1 -1 -1 -1 -2 -1 -1 -1 -1 -1 -1 nan
nan 0 0 0 0 0 0 1 0 0 0 0 0 0 0 0 0 1 1 1 1 0 0 -0 -1 -1 -1 -1 -1 -1 -1 -1 -1 -1 -1 -1 -0 -1 -1 -1 -1 -1 -1 -1 -2 -1 -1 -1 -1 -1 -1 nan
nan -0 -0 -0 -0 0 1 1 1 1 1 0 0 0 0 0 0 1 1 1 0 0 0 -0 -0 -0 -1 -1 -1 -1 -1 -1 -1 -1 -1 -1 -0 -0 -0 -1 -1 -1 -1 -1 -1 -1 -1 -1 -1 -1 -1 nan
nan -0 -0 -0 -0 -0 0 -0 -0 -0 -1 -1 -0 0 0 -0 0 0 0 0 -0 -0 -0 -0 -0 -0 -0 -0 -1 -1 -1 -1 -1 -1 -1 -1 -1 -0 -0 -0 -1 -1 -1 -1 -1 -1 -1 -1 -1 -1 -1 nan
nan -1 -1 -1 -1 -1 -1 -1 -2 -2 -2 -1 -1 -1 -0 -0 -0 -1 -0 -0 -0 -0 -0 -0 -0 -0 0 0 0 0 -0 -1 -1 -1 -1 -1 -1 -1 -1 -1 -1 -1 -1 -1 -1 -1 -1 -1 -1 -1 -1 nan
nan -1 -1 -1 -1 -1 -1 -2 -2 -1 -1 -1 -1 -1 -1 -0 -1 -1 -1 -0 -1 -0 -0 -0 -0 -0 -0 0 0 1 0 -0 -1 -1 -1 -1 -1 -0 -0 -1 -1 -1 -1 -1 -1 -1 -1 -1 -1 -1 -1 nan
nan -0 -0 -1 -1 -1 -1 -2 -2 -1 -0 -1 -1 -1 -1 -1 -1 -1 -1 -1 -1 -1 -1 -1 -1 -0 -1 -1 -0 -0 0 -0 -1 -1 -1 -1 -1 -0 -1 -1 -1 -1 -1 -1 -1 -1 -1 -1 -1 -1 -1 nan
nan -0 -0 -1 -1 -1 -2 -2 -1 -1 -0 -0 -1 -1 -1 -1 -0 -0 -1 -1 -1 -1 -1 -1 -1 -1 -1 -1 -1 -1 -0 -1 -1 -2 -2 -2 -2 -1 -1 -1 -1 -1 -1 -2 -1 -1 -1 -1 -1 -1 -1 nan
nan -0 -0 -1 -2 -2 -2 -1 -0 -0 -0 -0 -1 -2 -2 -1 -0 -1 -1 -1 -1 -1 -2 -2 -2 -2 -2 -2 -1 -1 -1 -1 -2 -2 -2 -2 -2 -2 -2 -1 -1 -1 -1 -2 -3 -2 -2 -2 -1 -1 -1 nan
nan -1 -1 -2 -2 -1 -1 -0 -0 -1 -1 -0 -0 -1 -2 -2 -0 -0 -1 -1 -1 -1 -2 -2 -1 -2 -2 -2 -2 -2 -1 -1 -1 -1 -1 -1 -2 -2 -3 -2 -1 -2 -2 -3 -3 -4 -4 -4 -2 -2 -2 nan
nan -1 -1 -1 -1 -0 -0 -0 -0 -1 -0 -0 0 -0 -2 -3 -1 -1 -1 -1 -1 -1 -2 -2 -2 -1 -1 -2 -2 -2 -1 -0 -0 -0 -1 -2 -2 -2 -2 -2 -2 -2 -2 -2 -3 -4 -5 -5 -4 -3 -2 nan
nan -1 -1 -0 -0 -0 0 0 0 0 0 -0 -0 0 -1 -3 -3 -3 -2 -2 -2 -2 -2 -2 -2 -2 -2 -2 -2 -2 -2 -1 -1 -2 -2 -2 -3 -3 -2 -3 -3 -2 -2 -2 -3 -3 -4 -4 -5 -5 -3 nan
nan -0 -0 0 0 0 0 0 1 0 0 -1 -1 -1 -1 -3 -4 -3 -3 -3 -2 -2 -2 -2 -2 -2 -2 -2 -2 -2 -2 -2 -2 -3 -3 -3 -3 -4 -4 -4 -4 -3 -2 -2 -3 -3 -4 -4 -4 -3 -3 nan
nan -0 -0 0 0 0 0 -0 -1 -1 -2 -2 -2 -2 -2 -2 -2 -2 -2 -2 -2 -2 -2 -2 -2 -2 -2 -2 -2 -2 -2 -2 -2 -2 -2 -2 -3 -3 -3 -3 -3 -3 -3 -2 -2 -2 -2 -2 -2 -3 -3 nan
nan -1 -1 -1 -1 -2 -2 -3 -3 -4 -4 -4 -3 -3 -2 -1 -2 -2 -2 -2 -2 -2 -2 -2 -2 -2 -2 -2 -2 -2 -2 -2 -2 -2 -2 -1 -2 -2 -1 -1 -2 -2 -3 -2 -2 -2 -1 -1 -1 -3 -3 nan
nan nan nan nan nan nan nan nan nan nan nan nan nan nan nan nan nan nan nan nan nan nan nan nan nan nan nan nan nan nan nan nan nan nan nan nan nan nan nan nan nan nan nan nan nan nan nan nan nan nan nan nan
Wind_Speed
13 14 14 15 16 17 18 19 19 19 18 18 19 19 20 20 21 20 20 21 21 21 21 22 22 22 22 23 23 24 25 25 26 27 27 28 28 28 28 28 28 27 28 28 28 28 29 29 30 29 30 30
13 14 15 15 16 17 18 19 20 19 18 19 19 19 20 21 21 21 22 23 23 23 23 24 24 24 24 25 25 26 27 27 28 28 29 29 30 30 30 30 29 29 29 29 29 29 29 30 30 30 31 31
13 13 14 15 17 17 18 19 20 20 19 19 19 19 20 21 22 22 23 24 25 25 25 26 26 27 26 27 27 28 29 30 30 30 31 31 32 32 32 32 32 31 31 30 30 30 30 30 31 31 32 32
15 15 14 16 17 18 19 19 20 20 20 19 19 19 19 20 21 23 24 25 26 26 27 27 28 29 28 29 29 30 30 31 32 33 33 33 33 34 34 34 33 34 33 32 31 31 32 31 32 32 32 32
17 17 16 17 17 18 19 19 19 19 19 19 19 19 19 20 21 22 23 25 26 27 29 29 29 29 29 30 31 32 32 33 34 35 35 35 35 35 35 35 35 35 35 34 33 33 33 33 33 32 32 32
16 17 17 18 18 18 18 18 18 19 19 18 18 19 19 19 20 21 22 24 25 27 29 30 30 30 30 31 32 33 33 34 35 36 36 36 36 35 35 36 36 36 36 35 34 34 34 34 34 33 33 33
16 17 18 18 18 18 19 19 20 20 20 20 19 19 19 19 20 21 22 23 24 26 28 30 31 32 32 32 33 33 34 34 35 35 36 36 35 35 35 36 36 37 36 36 35 34 34 35 35 34 35 35
17 18 19 19 19 20 21 22 22 23 23 22 22 21 21 20 20 21 22 24 25 26 27 29 30 31 32 32 32 32 33 34 34 34 34 35 35 34 35 35 36 36 36 36 35 35 35 35 36 36 36 37
17 18 19 19 20 20 21 22 23 24 24 24 24 24 23 22 21 21 22 23 25 26 27 29 30 31 32 32 33 33 34 35 35 35 36 36 36 36 37 37 37 37 38 37 37 36 36 37 37 37 38 38
17 18 19 19 20 20 21 21 22 23 24 25 25 25 25 25 24 24 24 24 26 27 28 30 31 32 32 33 33 33 34 36 37 38 38 38 38 38 38 39 39 39 39 38 38 38 38 38 38 38 38 38
17 18 19 19 20 20 21 21 22 22 23 24 25 26 26 26 26 26 26 27 27 28 29 30 31 32 33 33 33 33 33 34 35 36 37 37 37 37 37 38 38 38 38 38 38 38 39 39 39 39 39 38
18 19 19 20 20 21 21 22 22 23 23 24 25 25 26 27 27 27 28 28 28 29 29 30 31 32 32 33 33 33 33 33 34 34 35 36 36 37 37 37 37 38 38 38 39 40 41 41 41 41 40 40
18 19 20 21 21 21 22 23 23 24 24 25 26 26 26 27 28 29 29 29 29 29 29 30 30 31 32 33 34 33 34 34 34 34 35 36 36 37 37 38 38 38 39 40 40 41 42 42 42 43 43 43
17 17 18 19 19 20 21 22 23 24 25 25 26 26 25 25 27 28 29 30 30 30 30 30 30 31 32 32 33 32 33 33 34 35 35 35 36 37 37 38 39 39 40 40 40 41 42 42 43 43 43 43
17 16 17 18 18 19 19 20 21 23 24 24 24 23 23 24 26 27 28 28 28 28 30 31 31 31 32 33 32 32 32 32 32 33 34 35 36 37 38 39 39 39 39 40 40 40 41 41 42 42 42 42
16 16 17 17 18 18 18 18 20 21 21 21 21 20 21 22 23 24 25 25 26 28 30 31 32 32 32 33 33 32 31 31 32 32 34 35 35 36 37 38 38 39 39 40 40 40 40 40 40 40 40 41
14 14 14 14 14 14 14 15 15 16 16 15 15 16 17 18 20 21 22 24 26 29 31 31 32 32 32 31 30 29 29 30 31 31 33 34 34 35 35 37 37 37 37 39 40 40 40 39 39 39 39 40
16 15 15 15 15 14 14 14 15 16 16 15 15 15 16 19 21 23 23 25 27 29 29 30 30 30 30 29 28 28 28 29 29 29 31 32 33 34 33 34 34 34 35 36 37 37 38 38 38 38 39 39
19 18 18 18 19 19 19 20 22 23 22 22 21 20 21 23 24 25 26 27 28 29 30 30 29 28 27 27 27 28 28 28 27 27 27 29 31 32 32 32 33 33 33 34 34 35 35 35 35 36 37 38
20 21 22 23 23 23 24 24 25 24 23 22 22 22 22 24 25 27 28 28 29 30 30 30 29 28 27 27 27 27 26 25 25 25 25 26 27 29 31 31 31 31 32 34 34 35 35 35 35 35 35 35
22 23 24 24 24 23 23 23 22 20 18 17 19 21 23 25 26 27 28 29 30 30 30 30 29 29 29 29 29 28 26 24 23 22 24 25 24 26 30 31 32 33 33 34 35 36 36 36 36 35 35 35
20 20 20 20 20 20 20 20 18 17 17 16 18 20 24 26 25 26 28 30 30 31 31 31 31 30 30 30 29 28 27 25 25 24 25 27 27 28 29 30 30 30 31 32 33 33 34 34 34 35 34 34
17 16 16 16 16 16 19 18 15 15 15 16 19 22 24 26 26 28 29 31 32 32 33 33 32 31 30 29 28 28 27 26 26 26 26 27 29 30 29 29 31 32 33 34 35 35 36 35 34 33 33 33
13 12 11 11 14 16 17 14 10 12 14 17 21 23 25 26 28 30 31 33 34 34 35 34 32 30 29 28 27 27 26 24 23 23 24 25 28 29 29 29 29 31 33 35 38 37 36 36 36 36 35 34
12 10 9 10 15 16 12 9 9 14 18 20 23 26 28 29 32 34 34 35 36 36 35 33 32 30 29 28 27 26 23 21 21 21 24 26 28 29 30 30 27 27 30 33 35 36 39 39 35 32 29 28
10 10 9 10 12 10 7 9 13 18 21 24 26 28 31 33 35 36 36 36 36 35 34 33 32 31 30 29 28 26 23 23 24 25 26 29 30 30 29 29 28 28 29 30 32 35 40 39 34 29 24 21
10 10 10 11 10 7 8 12 16 21 24 26 29 30 32 34 34 34 34 34 34 33 32 32 31 31 31 30 29 28 28 27 27 28 28 29 31 31 30 30 29 27 26 28 31 33 33 32 34 31 21 16
12 12 11 12 12 11 13 16 19 22 25 27 29 28 30 32 32 31 32 32 32 31 31 31 31 31 31 30 30 29 30 30 29 29 28 28 29 31 32 31 29 28 26 26 28 30 30 29 26 22 23 30
15 14 15 15 16 17 20 23 25 27 30 30 29 29 28 30 31 30 30 30 30 30 30 30 30 31 31 30 30 30 30 30 29 28 27 27 29 30 30 29 29 29 26 24 23 24 26 24 19 22 33 40
18 19 20 21 23 24 26 28 29 30 30 29 29 28 26 26 28 28 28 28 28 29 29 29 29 30 30 30 29 29 29 29 28 28 27 28 29 28 28 27 28 29 27 24 22 20 20 17 19 29 36 34
21 22 24 25 26 26 27 27 27 26 26 26 25 24 23 24 25 26 27 28 28 28 28 28 28 28 28 28 28 28 28 28 28 28 27 28 27 27 27 27 28 28 26 28 26 22 22 19 18 23 28 29
Wind_Direction
312 310 311 314 316 317 320 323 323 317 311 305 299 293 287 282 280 278 278 280 282 284 287 289 293 295 297 299 301 303 305 307 308 310 311 312 312 312 312 311 310 310 310 309 309 308 307 307 306 305 303 301
308 309 312 314 316 317 319 322 322 319 312 307 303 298 292 287 283 279 277 278 280 282 285 287 291 294 295 297 298 300 302 303 304 306 307 309 309 309 309 308 308 307 307 306 305 305 305 304 304 304 302 300
306 308 313 314 315 317 319 322 322 320 315 309 305 302 298 292 288 284 282 281 282 283 284 286 289 291 293 294 296 298 299 301 302 303 304 306 306 307 307 306 306 305 304 304 304 303 302 302 302 301 299 299
311 313 316 315 315 318 319 322 322 321 318 312 308 304 301 297 294 290 288 285 284 284 284 285 287 290 292 293 294 295 297 298 299 301 302 303 304 304 304 304 304 303 303 303 302 301 300 300 299 298 297 298
313 315 317 316 316 318 319 322 322 322 321 317 312 308 304 301 299 296 293 289 287 287 287 287 288 290 290 291 292 293 294 295 297 298 299 301 301 302 302 302 302 301 302 302 301 300 299 298 297 296 296 296
312 313 314 314 314 316 318 323 324 325 325 322 317 312 308 305 303 301 298 295 293 292 293 295 296 295 294 292 292 292 293 294 295 296 298 299 300 300 301 301 300 301 301 301 300 298 297 296 296 297 298 297
313 313 313 313 316 319 323 327 328 328 329 327 324 319 316 313 311 308 305 303 301 300 300 301 300 300 299 298 297 295 295 295 295 296 297 298 299 300 299 299 299 299 299 298 298 297 297 297 298 299 299 297
316 316 316 319 323 325 328 331 331 331 331 330 329 326 324 321 319 315 311 308 306 304 303 302 301 302 302 302 301 300 300 299 299 299 299 299 299 299 298 299 298 298 298 298 298 299 299 299 300 300 299 298
315 317 318 322 325 326 328 331 332 332 332 330 329 328 327 327 325 321 316 313 310 309 307 306 306 307 307 307 307 307 307 306 306 305 305 304 303 304 304 304 303 303 302 302 303 302 301 299 298 298 297 297
313 316 317 321 323 324 327 329 330 331 331 330 329 329 329 330 330 328 325 322 319 317 315 314 313 313 312 312 311 311 310 309 309 309 309 309 308 308 308 307 306 305 303 302 301 299 297 295 294 293 293 292
312 314 316 320 321 323 326 326 328 330 331 330 330 330 330 331 332 332 331 329 326 324 321 318 317 316 314 312 310 309 306 305 306 306 307 306 306 305 304 303 303 302 300 298 296 295 295 294 293 292 292 291
314 315 316 319 321 323 325 326 327 329 331 331 332 333 332 333 334 334 333 332 329 327 323 321 319 317 314 312 310 309 306 305 305 304 303 303 303 302 301 301 300 299 298 296 295 294 294 294 294 294 294 294
318 318 318 320 322 324 325 326 327 328 331 334 335 335 335 334 333 333 332 330 329 327 324 321 319 316 314 313 312 311 309 308 306 304 303 302 301 300 300 299 299 298 297 295 294 294 294 294 294 294 294 294
316 316 317 319 320 321 324 326 326 328 331 334 336 336 335 332 331 331 330 329 327 326 323 320 318 316 314 313 313 311 309 308 306 304 302 300 299 298 297 297 296 296 294 293 292 292 291 291 291 291 292 292
318 316 316 318 320 324 327 327 327 328 332 336 338 336 334 332 332 332 331 329 326 324 322 318 317 316 315 314 313 313 310 309 306 303 301 298 296 295 295 295 296 296 295 294 293 292 290 290 290 289 289 289
331 329 326 326 328 330 331 329 328 330 334 338 338 336 335 334 333 332 331 327 322 321 319 317 316 315 316 315 314 315 313 310 307 304 301 299 297 296 297 298 299 299 298 297 296 295 293 293 291 290 290 289
359 354 348 345 343 341 337 332 332 335 337 338 337 335 331 330 331 328 324 320 318 320 320 318 318 317 317 315 313 311 307 304 304 304 302 300 299 298 298 298 298 299 298 297 297 297 296 295 293 292 291 289
24 21 18 16 14 11 6 3 4 4 2 360 355 349 342 342 340 335 330 328 329 331 330 327 325 323 320 317 312 308 305 303 303 302 301 300 299 298 298 298 297 296 294 293 292 292 292 292 292 291 290 288
30 30 28 25 24 20 17 16 15 13 10 7 4 359 354 350 345 343 343 342 340 339 337 335 333 329 323 318 312 311 311 310 308 306 304 302 302 302 302 300 299 299 296 294 292 291 290 289 289 288 287 287
29 27 24 21 19 16 14 13 13 13 9 3 358 353 350 348 345 345 346 343 341 340 339 337 334 330 323 316 311 310 311 311 311 311 308 306 305 304 303 301 299 297 296 296 295 294 292 289 287 286 285 284
30 27 23 20 18 16 15 14 13 11 5 356 349 345 344 345 344 342 341 340 339 338 337 336 333 329 323 319 315 312 309 308 308 306 303 300 297 298 302 304 302 300 299 298 296 296 295 292 290 288 288 286
33 29 26 22 19 15 12 14 12 3 358 352 345 342 341 342 339 337 338 337 336 335 334 333 331 328 325 323 321 318 315 311 305 300 296 295 294 295 299 303 304 304 303 301 299 298 297 296 295 293 292 291
31 26 24 22 22 18 11 15 12 356 353 346 339 337 337 337 335 334 335 334 334 333 332 331 329 328 327 325 325 323 322 319 316 312 306 301 298 296 296 296 297 298 298 297 295 293 293 293 291 289 289 288
20 17 21 23 26 26 17 15 5 344 342 338 337 337 334 334 333 333 335 334 334 333 332 332 331 330 329 328 328 327 328 330 329 324 314 306 303 302 300 298 299 301 302 301 298 298 295 291 289 288 286 284
5 6 18 26 31 31 12 348 340 338 340 340 342 340 335 335 335 334 337 336 335 334 333 333 333 333 333 333 332 330 331 331 324 317 312 310 311 312 312 312 314 312 311 312 313 311 305 301 300 298 297 293
3 11 19 22 33 37 355 332 337 340 343 343 344 344 339 337 337 336 336 334 333 333 334 335 335 336 337 337 336 333 331 325 321 319 319 320 320 321 322 321 321 320 320 321 321 319 314 313 312 309 307 294
10 20 19 17 24 15 345 342 342 342 344 344 344 344 338 335 335 334 332 332 333 334 336 337 338 339 340 340 339 338 335 332 332 330 330 332 331 329 329 328 328 329 331 326 321 322 323 323 320 316 312 288
10 14 8 10 11 357 348 347 344 342 344 345 344 342 338 335 336 335 334 335 337 338 340 340 341 342 343 344 343 343 342 342 342 342 343 342 340 338 337 339 340 338 339 337 336 337 332 328 327 324 323 316
1 358 353 353 350 346 345 345 344 345 346 348 346 344 342 337 337 338 339 341 341 341 343 343 345 346 346 347 347 348 349 350 350 351 353 349 345 347 347 345 342 342 349 350 349 349 341 337 333 324 327 326
360 357 354 352 350 349 350 350 351 351 350 349 347 345 343 338 337 340 342 344 346 346 347 348 349 350 351 351 352 353 353 355 355 354 354 352 351 351 352 349 345 351 356 350 350 352 345 339 329 324 330 332
1 360 360 360 360 360 359 358 358 356 353 350 349 348 345 344 345 347 349 351 352 352 353 353 354 355 355 356 357 357 357 357 358 358 355 355 357 354 354 355 355 358 352 345 352 353 344 340 334 331 334 334
Height
1534 1534 1533 1532 1531 1531 1530 1529 1528 1527 1526 1526 1525 1525 1524 1524 1524 1524 1523 1523 1522 1522 1521 1521 1520 1520 1519 1519 1518 1517 1516 1515 1514 1513 1512 1511 1510 1509 1508 1507 1506 1504 1503 1502 1501 1499 1498 1497 1496 1495 1494 1492
1533 1533 1532 1531 1530 1529 1529 1528 1527 1526 1525 1524 1524 1523 1523 1522 1522 1522 1522 1521 1521 1520 1520 1519 1519 1519 1518 1517 1516 1516 1515 1514 1513 1512 1511 1510 1509 1507 1506 1505 1504 1503 1501 1500 1499 1497 1496 1495 1494 1493 1491 1490
1532 1532 1531 1530 1529 1528 1528 1527 1526 1525 1524 1523 1522 1522 1521 1521 1520 1520 1520 1519 1519 1519 1518 1518 1518 1517 1517 1516 1515 1514 1513 1512 1511 1510 1509 1508 1507 1505 1504 1503 1502 1500 1499 1498 1497 1495 1494 1493 1492 1490 1489 1488
1530 1530 1530 1529 1528 1527 1526 1526 1525 1524 1523 1522 1521 1521 1520 1519 1519 1519 1519 1518 1518 1517 1517 1516 1516 1515 1515 1514 1513 1512 1511 1510 1509 1508 1507 1506 1504 1503 1502 1500 1499 1498 1496 1495 1494 1493 1492 1490 1489 1488 1487 1485
1529 1528 1528 1528 1527 1526 1526 1525 1524 1523 1522 1521 1520 1520 1519 1518 1518 1518 1517 1517 1516 1516 1515 1514 1514 1514 1513 1512 1511 1510 1509 1508 1506 1505 1504 1503 1502 1500 1499 1498 1496 1495 1494 1493 1491 1490 1489 1488 1486 1485 1484 1483
1529 1528 1527 1527 1526 1525 1525 1524 1523 1522 1521 1520 1519 1519 1518 1517 1517 1516 1516 1515 1514 1514 1513 1512 1511 1511 1511 1510 1509 1508 1507 1505 1504 1503 1501 1500 1499 1498 1496 1494 1493 1491 1490 1489 1488 1487 1485 1484 1482 1481 1480 1479
1528 1527 1526 1525 1525 1524 1523 1522 1521 1520 1520 1519 1518 1517 1516 1516 1515 1514 1514 1513 1512 1512 1511 1510 1509 1508 1508 1507 1506 1505 1504 1503 1502 1500 1499 1497 1496 1495 1493 1491 1490 1488 1487 1486 1484 1483 1482 1480 1478 1477 1476 1475
1526 1526 1525 1524 1523 1522 1521 1520 1520 1519 1518 1517 1517 1516 1515 1515 1514 1513 1512 1512 1511 1510 1509 1508 1507 1506 1505 1504 1503 1502 1501 1500 1499 1498 1496 1495 1493 1492 1490 1489 1487 1485 1484 1482 1481 1479 1478 1476 1475 1474 1473 1471
1525 1525 1524 1523 1523 1522 1521 1520 1520 1519 1518 1517 1516 1515 1514 1514 1513 1513 1512 1511 1510 1509 1508 1507 1506 1504 1503 1502 1500 1499 1498 1496 1495 1494 1493 1491 1489 1488 1486 1484 1483 1481 1480 1478 1477 1475 1474 1473 1472 1470 1469 1468
1525 1524 1524 1523 1523 1522 1521 1521 1520 1519 1518 1517 1516 1515 1514 1513 1512 1512 1511 1510 1509 1507 1506 1505 1504 1502 1501 1499 1498 1497 1495 1493 1492 1490 1489 1487 1485 1484 1482 1481 1479 1478 1476 1475 1474 1473 1472 1471 1469 1468 1467 1466
1525 1525 1524 1523 1523 1522 1521 1521 1520 1519 1518 1517 1516 1515 1514 1512 1512 1511 1510 1509 1507 1506 1505 1504 1502 1501 1500 1498 1497 1496 1494 1492 1490 1489 1487 1485 1484 1482 1481 1479 1477 1476 1474 1473 1472 1471 1469 1468 1467 1465 1464 1463
1525 1524 1524 1523 1522 1522 1521 1520 1520 1519 1518 1517 1516 1515 1514 1512 1511 1510 1509 1508 1507 1506 1504 1503 1502 1500 1498 1497 1495 1494 1493 1491 1489 1488 1486 1484 1482 1481 1479 1477 1476 1474 1472 1471 1469 1467 1466 1464 1463 1461 1460 1459
1524 1524 1523 1523 1522 1521 1521 1520 1519 1519 1518 1517 1516 1515 1513 1512 1511 1509 1508 1507 1506 1505 1503 1502 1500 1499 1497 1495 1494 1492 1491 1489 1487 1485 1484 1482 1480 1478 1477 1475 1473 1472 1470 1468 1466 1464 1462 1460 1459 1457 1456 1454
1524 1523 1523 1522 1522 1521 1521 1520 1519 1518 1517 1516 1515 1514 1513 1512 1510 1509 1507 1505 1504 1503 1501 1500 1498 1497 1495 1494 1492 1490 1489 1487 1485 1483 1481 1479 1478 1476 1474 1472 1471 1469 1467 1465 1463 1461 1459 1457 1455 1454 1452 1451
1523 1523 1523 1522 1522 1521 1520 1519 1518 1517 1516 1515 1514 1513 1512 1511 1510 1508 1506 1504 1503 1501 1499 1497 1496 1494 1493 1491 1490 1488 1486 1484 1483 1481 1479 1477 1475 1473 1471 1469 1467 1465 1463 1461 1459 1458 1455 1454 1452 1450 1448 1447
1523 1522 1522 1521 1520 1520 1519 1518 1517 1516 1516 1515 1514 1513 1512 1511 1509 1507 1505 1503 1501 1499 1497 1495 1494 1492 1490 1489 1487 1485 1483 1482 1480 1478 1476 1474 1472 1470 1467 1465 1463 1461 1459 1456 1454 1453 1451 1449 1448 1446 1444 1443
1522 1521 1521 1520 1519 1519 1518 1517 1517 1516 1515 1514 1514 1513 1511 1510 1508 1506 1504 1502 1500 1498 1496 1494 1492 1490 1488 1487 1485 1483 1481 1479 1477 1475 1473 1471 1469 1466 1464 1461 1459 1458 1455 1453 1451 1449 1447 1445 1444 1442 1440 1439
1522 1521 1520 1520 1519 1518 1518 1517 1516 1515 1514 1513 1512 1511 1510 1508 1507 1505 1503 1501 1498 1496 1494 1492 1490 1488 1486 1484 1482 1480 1478 1476 1474 1472 1470 1468 1466 1464 1462 1459 1457 1455 1452 1450 1448 1446 1445 1443 1441 1440 1438 1436
1522 1522 1521 1520 1519 1518 1518 1516 1515 1514 1513 1512 1511 1510 1508 1507 1505 1503 1501 1499 1496 1494 1492 1490 1488 1486 1484 1481 1479 1477 1475 1473 1471 1469 1468 1466 1463 1460 1458 1456 1454 1452 1449 1447 1445 1444 1442 1440 1438 1437 1435 1434
1523 1522 1521 1520 1519 1518 1517 1515 1514 1513 1512 1511 1510 1508 1507 1505 1503 1500 1498 1496 1494 1492 1490 1488 1486 1484 1481 1479 1476 1474 1472 1470 1469 1467 1465 1463 1461 1458 1455 1452 1450 1448 1446 1444 1441 1440 1438 1436 1435 1433 1431 1430
1523 1522 1521 1520 1519 1517 1516 1515 1514 1513 1512 1510 1509 1507 1504 1502 1500 1498 1497 1495 1492 1490 1488 1486 1484 1482 1479 1476 1474 1472 1470 1468 1466 1464 1461 1459 1457 1455 1451 1449 1446 1444 1442 1440 1437 1436 1434 1432 1430 1429 1427 1426
1523 1522 1521 1520 1519 1518 1517 1516 1514 1513 1511 1508 1506 1504 1502 1501 1498 1497 1495 1493 1490 1488 1486 1484 1481 1479 1476 1474 1471 1469 1467 1465 1463 1461 1458 1455 1453 1452 1449 1446 1444 1441 1439 1436 1433 1431 1429 1428 1426 1425 1424 1423
1523 1522 1521 1520 1520 1518 1517 1515 1513 1511 1508 1506 1504 1502 1501 1500 1497 1495 1494 1491 1489 1486 1483 1481 1479 1476 1474 1471 1469 1466 1464 1462 1460 1458 1455 1453 1450 1448 1447 1445 1442 1439 1435 1432 1429 1426 1425 1424 1422 1421 1420 1419
1522 1521 1520 1519 1519 1518 1517 1515 1512 1509 1508 1506 1504 1502 1500 1499 1497 1494 1493 1490 1487 1484 1481 1479 1476 1474 1471 1469 1467 1464 1462 1460 1458 1455 1452 1449 1447 1444 1443 1442 1440 1436 1432 1427 1423 1421 1419 1418 1417 1416 1415 1414
1521 1520 1519 1518 1518 1518 1516 1513 1511 1509 1508 1506 1504 1501 1499 1498 1496 1493 1491 1488 1485 1482 1479 1477 1474 1471 1469 1467 1465 1463 1460 1458 1455 1453 1450 1447 1445 1442 1439 1437 1436 1433 1429 1424 1419 1415 1412 1411 1412 1411 1410 1410
1520 1519 1518 1518 1517 1517 1515 1513 1512 1510 1508 1506 1504 1500 1496 1496 1495 1492 1489 1486 1483 1480 1477 1474 1472 1470 1467 1465 1463 1461 1459 1457 1454 1451 1449 1445 1442 1441 1438 1436 1434 1432 1429 1424 1420 1414 1408 1405 1405 1406 1407 1406
1520 1520 1519 1519 1518 1517 1515 1515 1513 1511 1509 1506 1504 1501 1496 1494 1493 1490 1488 1485 1482 1479 1476 1473 1471 1469 1467 1464 1462 1460 1457 1455 1453 1450 1447 1444 1441 1438 1437 1435 1433 1432 1430 1426 1421 1416 1411 1406 1401 1400 1401 1401
1521 1521 1521 1520 1519 1518 1516 1515 1514 1511 1509 1506 1503 1500 1495 1491 1489 1487 1485 1483 1480 1478 1475 1473 1470 1468 1466 1464 1461 1459 1456 1453 1451 1449 1446 1444 1441 1438 1435 1433 1432 1431 1431 1428 1423 1419 1414 1409 1405 1401 1399 1397
1521 1521 1521 1520 1519 1517 1515 1513 1511 1508 1506 1503 1501 1498 1494 1490 1487 1486 1484 1482 1480 1477 1475 1473 1470 1468 1466 1463 1461 1458 1456 1453 1451 1449 1446 1444 1441 1439 1436 1433 1432 1430 1430 1429 1427 1425 1419 1414 1410 1406 1403 1398
1521 1520 1519 1518 1516 1514 1512 1510 1507 1505 1503 1501 1499 1497 1495 1491 1488 1486 1484 1482 1480 1477 1475 1473 1470 1468 1466 1463 1461 1458 1456 1454 1451 1449 1447 1444 1442 1440 1438 1435 1432 1430 1429 1428 1428 1427 1426 1423 1418 1410 1405 1400
1520 1519 1517 1516 1514 1512 1511 1508 1506 1505 1503 1501 1499 1497 1495 1492 1489 1486 1484 1482 1480 1478 1475 1473 1471 1469 1466 1464 1461 1459 1456 1454 1452 1450 1447 1446 1443 1441 1439 1436 1433 1431 1429 1427 1426 1426 1424 1423 1421 1416 1410 1405